Location: Chuathbaluk
(61.5726°N, 159.2454°W)
Time: 14:44:40
(UTC+00:00)

Altair - Pass Details

Date: 03 December 2020
Orbit: 1501 x 1682 km, 47.2° (Epoch: 17 January)

Event Time Altitude Azimuth Distance (km) Brightness Sun altitude
Rises 06:50:08 0° 222° (SW) 4,719 10.3 -36.1°
Reaches altitude 10° 06:53:47 10° 211° (SSW) 3,713 9.6 -36.5°
Enters shadow 06:56:36 19° 197° (SSW) 3,063 9.0 -36.9°
